Skip Page Navigation
NASA JPL Caltech
NASA Logo - Jet Propulsion Laboratory + View the NASA Portal
+ Center for Near-Earth Object Studies
JPL Home Earth Solar System Stars & Galaxies Technology
JPL Solar System Dynamics
BODIES ORBITS EPHEMERIDES TOOLS PHYSICAL DATA DISCOVERY FAQ SITE MAP
IMPORTANT: The SSD Announcement email list is now available. Major changes are coming in the near future, including possible hostname and/or URL changes. To be notified of such changes, subscribe to this email list.

Please visit this page for more details.


JPL Small-Body Database Browser
Search: [ help ]  
487803 (2015 SS5)
Classification: Main-belt Asteroid          SPK-ID: 2487803
Ephemeris | Orbit Diagram | Orbital Elements | Mission Design | Physical Parameters | Discovery Circumstances | Close-Approach Data ]

[ hide orbit diagram ]

For accurate long-term ephemerides, please instead use our Horizons system.This orbit viewer was implemented using two-body methods, and hence should not be used for determining accurate long-term trajectories (over several years or decades) or planetary encounter circumstances.


[ revert to old Java-based viewer ]

Orbital Elements at Epoch 2458600.5 (2019-Apr-27.0) TDB
Reference: JPL 14 (heliocentric ecliptic J2000)
 Element Value Uncertainty (1-sigma)   Units 
e .230907756505512 2.3365e-07  
a 3.171041754109674 8.2124e-08 au
q 2.438823616882905 7.3692e-07 au
i 8.580617006731828 1.2842e-05 deg
node 338.9023270537157 6.0974e-05 deg
peri 42.38526181147029 9.4367e-05 deg
M 223.9853724740015 4.2855e-05 deg
tp 2459379.763766876069
(2021-Jun-14.26376688)
0.00025088 TDB
period 2062.535193295749
5.65
8.0123e-05
2.194e-07
d
yr
n .1745424762545515 6.7804e-09 deg/d
Q 3.903259891336442 1.0109e-07 au
  Orbit Determination Parameters
   # obs. used (total)      132  
   data-arc span      4461 days (12.21 yr)  
   first obs. used      2004-12-02  
   last obs. used      2017-02-18  
   planetary ephem.      DE431  
   SB-pert. ephem.      SB431-N16  
   condition code      0  
   norm. resid. RMS      .56365  
   source      ORB  
   producer      Otto Matic  
   solution date      2017-Apr-09 00:13:18  

Additional Information
 Earth MOID = 1.44842 au 
 Jupiter MOID = 1.64349 au 
 T_jup = 3.143 
[ show covariance matrix ]

Ephemeris | Orbit Diagram | Orbital Elements | Mission Design | Physical Parameters | Discovery Circumstances | Close-Approach Data ]

Physical Parameter Table
Parameter Symbol Value Units Sigma Reference Notes
absolute magnitude H 16.5   n/a MPO399141  

487803 (2015 SS5)          Discovered 2009-Sep-25 by Mt. Lemmon Survey at Mount Lemmon
Reference: Last Updated: 2017-03-14

[ show close-approach data ]
Ephemeris | Orbit Diagram | Orbital Elements | Mission Design | Physical Parameters | Discovery Circumstances | Close-Approach Data ]
ABOUT SSD CREDITS/AWARDS PRIVACY/COPYRIGHT GLOSSARY LINKS
FirstGov 2019-Dec-12 06:47 UT
(server date/time)  
NASA Home Page
Site Manager:   Ryan S. Park
Webmaster  Alan B. Chamberlin